Wind_Speed
117 119 120 121 122 122 123 124 125 126 127 128 128 129 130 131 132 132 133 133 134 134 134 134 134 134 134 134 135 135 135 136 136 137 138 139 139 140 140 141 141 142 142 142 142 142 142 142 142 142 141 141 141 141 141 141 141 140 140 139 139 138 137 136 135 134 134 134 133 133 133 133 133 133 132 132 132 132 131 131 131 131 130 130 129 129
118 119 120 120 120 121 121 122 122 123 123 124 125 125 126 126 127 128 128 129 129 129 130 130 130 130 130 130 130 131 131 131 132 132 133 134 134 135 136 137 137 138 138 138 138 139 139 139 139 138 138 138 138 138 138 138 138 138 138 138 138 137 137 136 135 135 134 133 133 133 133 132 132 132 132 132 132 132 132 132 131 131 131 131 131 130
118 119 119 119 119 119 119 119 119 119 120 120 120 121 121 122 122 123 123 124 124 124 124 124 124 124 125 125 125 126 126 126 126 127 127 128 129 130 130 131 132 133 133 134 134 134 134 134 134 135 134 134 134 134 134 134 135 135 135 135 135 135 135 135 134 134 133 133 132 132 132 131 131 131 131 131 131 131 131 131 131 131 131 131 131 131
118 118 118 117 117 117 117 117 117 116 116 116 116 116 116 117 117 117 117 118 118 118 118 118 118 118 118 119 119 119 119 120 120 121 121 122 123 123 124 125 126 126 127 128 128 129 129 129 130 130 130 130 130 130 130 130 130 131 131 131 131 132 132 132 132 132 132 131 131 130 130 130 130 130 130 130 130 130 130 130 130 130 131 131 131 131
117 116 116 115 115 114 114 113 113 113 112 112 111 111 111 111 111 111 111 111 111 111 111 111 111 111 111 111 112 112 112 113 113 113 114 115 115 116 117 118 118 119 120 121 121 122 123 123 124 124 124 124 125 125 125 125 126 126 126 127 127 127 128 128 129 129 129 129 129 129 129 128 128 128 128 128 128 128 128 129 129 129 129 130 130 130
115 115 114 113 112 111 110 109 109 108 107 107 106 105 105 104 104 104 104 104 104 104 104 104 104 104 104 104 105 105 105 105 106 106 107 107 108 109 109 110 111 112 112 113 114 114 115 116 117 117 118 118 119 119 119 120 120 121 121 121 122 122 123 124 124 125 125 126 126 126 126 126 126 126 126 126 126 126 127 127 127 127 128 128 129 129
113 112 110 109 108 107 106 105 104 103 102 101 100 99 99 99 98 98 98 98 97 97 97 97 98 98 98 98 98 98 99 99 99 100 100 101 101 102 102 103 103 104 105 105 106 107 108 109 110 110 111 112 112 113 113 114 114 115 115 116 116 117 118 118 119 120 120 121 122 122 123 123 123 123 124 124 124 124 124 125 125 125 126 126 127 127
110 108 107 105 104 102 101 100 99 98 97 96 95 94 94 94 93 93 93 92 92 92 92 92 92 93 93 93 93 93 93 93 94 94 95 95 95 96 96 97 97 98 98 99 100 101 101 102 103 104 104 105 105 106 107 107 108 109 110 110 111 111 112 112 113 114 115 116 117 117 118 119 120 120 120 121 121 121 122 122 122 123 123 124 125 125
106 104 102 100 99 98 96 95 94 94 92 91 91 90 90 89 89 89 88 88 88 88 88 88 88 88 88 88 88 88 89 89 89 89 90 90 90 91 91 91 92 92 93 94 94 95 96 96 97 98 98 99 99 100 101 102 102 103 104 105 105 106 106 107 107 108 109 110 111 112 113 114 115 116 116 117 117 118 118 119 119 120 120 121 122 123
101 99 97 96 95 94 92 91 91 90 89 88 87 86 86 85 85 85 84 84 84 84 84 84 84 84 84 84 84 84 84 84 84 85 85 85 86 86 86 87 87 88 88 89 90 90 91 91 92 92 93 94 94 95 96 97 97 98 99 99 100 100 101 101 102 103 103 104 105 106 107 108 110 111 112 113 113 114 114 115 116 116 117 118 119 120
96 95 93 92 91 90 89 88 87 86 85 84 84 83 82 82 81 81 81 81 81 81 80 80 80 80 80 80 80 80 80 80 80 80 80 81 81 81 82 82 83 84 84 85 85 86 86 87 87 88 88 89 90 90 91 92 93 93 94 95 95 96 96 97 97 98 98 99 100 101 102 103 104 105 107 108 109 109 110 111 112 112 113 114 115 116
92 90 89 88 87 86 86 85 84 83 82 81 81 80 79 78 77 77 77 77 77 77 77 76 76 76 76 76 76 76 76 75 76 76 76 77 77 77 78 78 79 79 80 81 81 81 82 82 83 83 84 85 85 86 87 88 88 89 90 90 91 92 92 92 93 93 94 95 95 96 97 98 99 100 101 103 104 105 105 106 107 108 109 110 111 112
88 87 86 85 84 83 82 82 81 80 79 78 78 77 76 75 74 73 73 73 73 73 73 73 72 72 72 72 72 72 72 72 72 72 72 73 73 73 74 74 75 75 76 77 77 77 78 78 79 79 80 80 81 82 83 83 84 85 85 86 87 88 88 89 89 90 90 90 91 92 92 93 94 95 96 98 99 100 101 102 103 104 105 106 107 108
85 83 82 81 81 80 79 79 78 77 76 76 74 74 73 72 71 70 70 70 70 70 69 69 69 69 69 69 69 68 68 68 68 69 69 70 70 70 70 70 71 72 72 73 73 73 74 74 74 75 76 76 77 78 78 79 80 81 81 82 83 84 85 85 86 86 86 87 87 88 88 89 90 91 92 93 94 95 96 97 98 99 100 102 103 104
82 80 79 78 77 77 76 75 75 74 74 73 72 71 70 69 68 68 67 67 67 66 66 66 66 66 66 66 66 65 65 65 65 66 66 67 67 67 67 67 68 68 69 69 69 70 70 70 71 71 72 73 73 74 74 75 76 77 77 78 79 80 81 82 82 83 83 83 83 84 84 85 86 87 88 89 90 91 92 93 94 95 96 97 98 100
79 78 76 75 75 74 74 73 72 71 71 70 69 68 67 66 65 65 64 64 64 64 63 63 63 63 64 64 63 63 62 62 63 63 64 65 65 65 65 64 65 65 66 66 66 66 66 67 67 68 68 69 70 70 71 71 72 73 74 75 76 77 77 78 79 79 79 80 80 80 81 82 82 83 84 85 86 87 88 89 90 91 92 93 94 96
77 75 74 73 72 72 71 70 69 69 68 67 66 65 64 64 63 63 62 62 62 61 61 61 61 61 62 62 62 61 60 60 60 61 62 63 63 63 62 62 62 63 63 63 63 63 63 63 64 65 65 66 66 67 67 68 69 69 70 71 72 73 74 75 75 75 76 76 76 77 77 78 79 80 80 81 82 83 84 85 86 87 88 89 90 92
74 73 72 71 70 69 69 68 67 67 66 65 64 63 62 61 61 60 60 60 59 59 59 59 59 59 60 60 60 59 58 58 58 59 60 60 61 61 60 60 60 61 61 61 61 61 61 61 62 62 63 63 63 64 64 65 66 67 67 68 69 70 71 71 72 72 72 73 73 73 74 74 75 76 77 78 79 79 80 81 82 83 84 85 87 88
71 70 69 69 68 67 67 66 66 65 64 63 62 61 60 60 59 58 58 58 57 57 57 57 57 58 58 58 58 58 57 56 56 57 58 59 59 59 58 58 58 59 59 59 59 59 59 59 60 60 60 60 61 61 62 62 63 64 65 66 66 67 68 68 69 69 69 69 70 70 70 71 72 73 73 74 75 76 77 78 79 80 81 82 83 84
68 67 67 66 65 65 65 65 64 63 63 62 60 60 59 58 58 57 56 56 55 55 55 55 56 56 56 57 57 56 55 55 55 55 56 57 57 57 57 56 56 57 57 57 57 57 58 58 58 58 58 58 59 59 60 60 61 62 63 63 64 65 65 66 66 66 66 66 67 67 67 68 69 69 70 71 72 73 74 75 76 77 78 79 80 81
65 65 64 63 63 62 62 62 62 62 61 60 60 59 58 57 57 56 55 55 54 54 54 54 54 54 55 55 55 55 54 53 53 54 55 56 56 56 55 55 55 55 56 56 56 56 56 57 57 57 56 56 57 57 58 59 59 60 61 62 62 63 63 63 64 64 64 64 64 65 65 66 66 67 67 68 69 70 71 72 73 74 74 75 77 78
63 62 62 61 60 60 60 60 60 60 59 59 58 58 57 56 56 55 54 54 53 53 53 53 53 53 53 53 53 53 52 52 52 53 53 54 55 55 54 53 54 54 55 55 55 55 55 55 55 55 55 55 55 56 56 57 58 58 59 60 60 61 61 61 62 62 62 62 63 63 63 63 64 64 65 66 67 67 68 69 70 71 72 73 74 75
61 60 60 59 58 57 57 57 57 57 57 57 57 56 56 55 55 54 53 53 52 52 51 51 52 52 52 52 52 51 51 51 51 51 52 53 53 53 53 52 52 53 54 54 54 54 54 53 53 53 53 53 53 54 55 56 56 57 58 58 59 59 59 60 60 60 60 61 61 61 61 62 62 62 63 64 64 65 66 67 67 68 69 70 71 72
59 59 58 57 56 56 55 55 55 55 55 55 55 55 54 54 53 53 52 52 51 51 50 50 50 51 51 51 50 50 50 49 49 49 50 51 52 52 52 51 51 52 53 53 53 53 52 52 52 51 51 51 52 53 53 54 55 56 56 57 57 58 58 58 58 58 59 59 59 60 60 60 60 61 61 62 62 63 64 65 65 66 67 68 69 69
58 57 56 56 55 54 54 53 53 53 53 53 53 53 52 52 51 51 51 50 50 49 49 49 49 50 50 49 49 49 48 48 48 48 48 49 50 50 50 50 50 51 52 52 52 52 51 51 50 50 50 50 50 51 52 53 54 54 55 56 56 56 56 56 56 57 57 57 58 58 58 59 59 59 60 60 61 61 62 63 63 64 65 66 66 67
57 56 55 54 54 53 52 52 51 51 51 51 51 51 51 50 50 49 49 49 49 48 48 48 48 48 49 48 48 48 47 47 46 46 46 47 48 49 49 49 49 50 51 51 51 51 51 50 49 49 48 48 49 50 50 51 52 53 54 54 55 55 55 55 55 55 55 56 56 57 57 57 58 58 58 59 59 60 60 61 62 62 63 64 64 65
55 54 54 53 52 52 51 50 50 49 49 49 49 49 49 49 48 48 48 48 47 47 47 47 47 47 47 47 47 47 46 46 45 44 44 45 46 47 48 48 48 49 50 50 51 50 50 49 48 48 47 47 48 48 49 50 50 51 52 53 53 54 54 54 54 54 54 54 55 55 55 56 56 57 57 57 58 58 59 60 60 61 61 62 63 63
54 53 53 52 51 51 50 49 49 48 48 48 48 47 47 47 47 47 47 47 46 46 46 46 46 46 46 46 46 46 45 45 44 43 43 43 45 46 47 47 47 47 48 49 50 50 49 49 48 47 47 46 46 47 47 48 49 50 51 51 52 52 52 52 52 52 52 53 53 53 54 54 55 55 55 56 56 57 58 58 59 59 60 61 61 62
53 52 52 51 50 50 49 49 48 47 47 47 46 46 46 45 45 45 45 46 45 45 45 45 45 45 45 44 45 45 45 44 43 42 42 42 44 45 45 45 46 46 47 48 48 49 49 48 47 46 46 46 46 46 46 46 47 48 49 50 50 51 51 51 51 51 51 51 51 52 52 53 53 53 54 54 55 56 56 57 57 58 59 59 60 60
52 51 50 50 49 49 48 48 47 47 46 46 45 45 44 44 44 44 44 44 44 44 44 44 44 44 44 44 44 44 44 43 42 41 41 42 43 44 44 44 44 45 45 46 47 47 48 47 46 45 45 45 44 44 44 45 45 46 47 48 49 49 50 50 50 50 50 49 50 50 51 51 51 52 52 53 53 54 55 55 56 56 57 58 59 59
51 50 49 49 48 47 47 47 46 46 45 45 44 44 43 43 42 42 42 42 42 43 43 44 44 44 44 43 43 43 43 43 42 41 40 41 42 43 43 43 43 44 44 44 45 46 47 46 46 45 44 44 44 43 43 43 44 45 46 47 47 48 48 48 48 48 48 48 48 49 49 49 50 50 51 51 52 52 53 54 54 55 56 56 57 58
50 49 48 48 47 46 46 45 45 44 44 43 43 42 42 41 41 41 41 41 41 41 42 43 43 44 43 43 43 43 43 42 41 40 40 40 41 42 43 43 43 43 43 43 44 45 45 45 45 44 43 43 43 42 42 42 42 43 44 45 46 46 47 47 47 47 47 47 47 47 47 48 48 49 49 49 50 51 51 52 53 53 54 55 56 56
50 49 48 47 46 45 45 44 43 43 43 42 42 41 40 40 39 39 39 39 39 39 40 41 42 43 43 43 43 43 43 43 41 40 39 40 40 41 42 42 42 42 42 42 43 44 44 45 44 44 43 42 42 41 41 41 41 42 42 43 44 45 45 46 46 45 45 45 45 45 46 46 46 47 47 48 48 49 49 50 51 52 53 53 54 55
48 48 47 46 45 45 44 43 43 42 41 41 40 40 39 38 38 37 37 37 37 37 38 39 40 41 42 43 43 43 44 43 42 40 39 39 40 41 41 41 41 41 41 42 42 43 43 44 44 43 42 42 41 40 40 40 40 41 41 42 42 43 44 44 44 44 44 44 44 44 44 44 45 45 45 46 46 47 48 49 49 50 51 52 53 53
47 46 46 45 44 44 43 42 42 41 41 40 39 39 38 37 37 36 35 35 35 35 35 36 37 39 40 41 42 43 44 44 43 41 40 40 39 40 40 41 41 41 41 41 42 42 43 43 43 43 42 41 40 39 39 39 39 40 40 40 41 42 42 43 43 43 43 42 42 42 43 43 43 44 44 44 45 45 46 47 47 48 49 50 51 52
44 44 44 43 43 42 42 41 41 40 40 39 39 38 38 37 36 36 35 35 34 34 33 34 35 36 37 39 40 42 43 44 43 43 41 40 40 40 40 40 40 40 40 41 41 42 42 43 43 42 42 41 40 39 38 38 38 38 39 39 39 40 41 41 42 42 42 41 41 41 41 42 42 42 42 43 43 44 44 45 46 47 47 48 49 50
42 42 41 41 41 40 40 40 39 39 39 38 38 38 37 37 36 35 35 34 34 33 33 33 33 34 35 36 38 40 42 43 43 43 42 41 40 40 40 39 39 39 39 40 41 41 42 42 42 42 41 40 39 38 38 38 37 37 37 37 38 38 39 40 40 40 40 40 40 40 40 40 41 41 41 41 42 42 42 43 44 45 46 47 48 48
40 39 39 39 38 38 38 38 38 38 37 37 37 37 36 36 35 35 35 34 34 33 33 32 32 33 33 34 36 38 39 41 42 43 43 42 41 41 40 39 39 39 39 39 40 41 41 42 42 42 41 40 39 38 38 37 37 37 36 36 36 37 37 38 39 39 39 39 39 39 39 39 40 40 40 40 40 41 41 42 42 43 44 45 46 47
38 38 37 37 37 37 36 36 36 36 36 36 36 36 35 35 34 34 34 33 33 33 32 32 32 32 32 33 35 36 38 40 41 42 43 43 42 41 40 39 39 38 38 38 39 39 41 41 41 41 40 40 39 38 38 37 36 36 35 35 35 35 36 37 37 38 38 38 38 38 38 38 39 39 39 39 39 39 40 40 41 42 42 43 44 45
37 36 36 36 35 35 35 35 35 35 35 35 35 35 34 34 33 33 33 33 32 32 32 31 31 31 32 33 33 35 36 38 40 41 42 43 42 42 41 40 39 38 37 37 38 39 39 40 40 40 40 39 39 38 38 37 36 35 35 34 34 34 34 35 36 37 37 37 38 37 37 38 38 38 38 38 38 38 39 39 39 40 41 42 43 44
36 35 35 35 35 35 34 34 34 34 34 34 34 34 34 33 33 33 32 33 32 32 32 31 31 31 32 32 33 34 35 37 38 40 41 42 42 42 41 40 39 38 37 37 37 37 38 39 39 39 39 39 39 38 38 37 36 35 34 34 33 33 33 34 35 36 36 37 37 37 37 37 37 37 38 37 38 38 38 38 38 39 40 41 41 42
35 35 35 35 34 34 34 34 34 34 34 34 34 34 33 33 33 33 33 33 33 33 33 32 32 32 32 32 33 33 34 36 37 39 40 41 42 42 41 40 39 38 37 36 36 37 37 38 38 38 38 38 38 38 38 37 36 35 34 34 33 32 32 33 33 34 35 36 36 37 37 37 37 37 37 37 37 37 37 37 37 38 39 39 40 41
35 34 34 34 34 34 34 34 34 34 34 34 34 34 33 33 33 33 33 33 33 33 33 33 33 33 33 33 33 33 34 35 36 37 39 40 41 41 41 40 39 38 37 36 36 36 36 36 37 37 37 38 38 38 37 37 36 35 34 34 33 32 32 32 33 33 35 35 36 36 36 36 36 36 36 36 36 36 36 36 37 37 38 38 39 40
35 35 35 35 35 35 35 35 35 34 34 34 34 34 33 33 33 33 33 33 34 34 34 34 34 33 33 33 33 33 33 34 35 36 37 39 39 40 40 39 38 38 37 36 36 35 35 35 36 36 36 37 37 37 37 36 35 35 34 34 33 33 33 32 32 33 34 35 35 36 36 36 36 36 36 35 35 35 36 36 36 36 37 37 38 39
35 35 35 35 35 35 35 35 35 35 35 35 34 34 34 33 33 33 33 33 33 34 34 34 34 33 33 33 33 33 33 33 34 35 36 37 38 38 38 38 37 37 36 36 35 35 35 35 35 35 35 36 36 36 36 36 35 35 34 34 34 33 33 33 33 33 34 34 35 35 35 35 35 35 35 35 35 35 35 35 35 35 36 36 37 38
35 35 35 36 36 36 36 36 36 36 36 35 35 34 34 33 33 33 33 33 33 33 33 33 33 33 33 32 32 32 32 32 33 34 35 35 36 37 37 37 36 36 36 35 35 35 34 34 34 34 35 35 36 36 35 35 35 35 34 34 34 34 34 33 33 33 33 33 34 34 35 35 35 35 35 34 34 34 34 35 35 35 35 36 36 37
34 35 35 35 35 36 36 36 36 36 36 36 35 35 34 34 33 33 33 33 33 33 33 33 33 33 32 32 32 31 31 32 32 33 33 34 35 35 35 35 35 34 34 34 34 34 34 34 34 34 34 34 34 34 34 34 34 34 34 35 35 35 34 34 33 32 32 33 33 34 34 35 35 35 35 34 34 34 34 34 34 34 35 35 36 36
34 34 34 34 35 35 35 36 36 36 36 36 35 35 34 33 33 33 32 32 32 33 33 33 33 32 32 32 31 31 31 31 31 32 32 33 33 33 33 33 33 33 33 33 34 33 33 33 33 33 33 33 33 33 33 33 34 34 34 35 35 35 34 34 33 32 32 32 32 33 34 34 34 34 34 34 34 34 34 34 34 34 34 35 35 36
33 34 34 34 34 35 35 35 36 36 36 36 35 35 34 34 33 33 32 32 32 32 33 33 33 32 32 32 31 31 31 31 31 31 31 31 31 31 31 31 32 32 32 32 33 33 32 32 32 32 32 32 32 32 32 32 33 33 34 34 35 34 34 33 32 32 31 32 32 33 33 34 34 34 34 34 34 34 34 34 33 34 34 34 34 35
34 34 34 34 35 35 35 35 35 36 36 36 36 35 35 34 33 33 32 32 32 32 32 32 32 32 32 32 31 31 31 30 30 30 30 30 30 30 30 30 30 30 31 31 31 31 31 31 31 31 30 30 30 30 31 32 32 33 33 33 33 33 33 32 32 31 31 31 32 32 32 33 33 33 34 34 34 34 34 34 34 33 33 34 34 34
35 35 35 35 35 36 36 36 36 36 36 36 36 36 36 35 34 33 32 32 32 32 32 32 32 32 32 32 31 31 31 30 30 30 30 29 29 29 28 28 29 29 29 30 30 30 30 30 30 29 29 29 29 29 30 31 31 32 32 32 32 32 31 31 31 31 31 31 31 32 32 32 32 33 33 33 33 33 33 33 33 33 33 33 34 34
Wind_Direction
283 282 281 281 280 279 279 278 277 277 276 276 275 275 274 274 274 273 273 273 272 272 272 271 271 271 271 270 270 269 269 269 268 268 268 268 268 267 267 267 267 267 267 267 267 267 267 267 267 266 266 266 266 266 266 266 266 266 265 265 265 265 265 265 265 265 264 264 264 264 263 263 263 262 262 262 262 262 262 262 262 262 262 262 262 262
285 284 283 282 282 281 280 279 279 278 277 277 276 276 275 275 274 274 273 273 273 272 272 272 271 271 271 270 270 270 269 269 268 268 268 268 267 267 267 267 267 267 267 267 266 266 266 266 266 266 266 266 265 265 265 265 265 265 265 265 264 264 264 264 264 264 263 263 263 263 263 262 262 262 262 261 261 261 261 261 261 261 261 261 261 262
287 286 285 284 283 283 282 281 280 280 279 278 277 277 276 276 275 274 274 274 273 273 272 272 272 271 271 271 270 270 269 269 269 268 268 268 267 267 267 267 266 266 266 266 266 266 266 266 266 266 265 265 265 265 265 264 264 264 264 264 264 263 263 263 263 263 263 262 262 262 262 262 261 261 261 261 261 260 260 260 260 260 260 260 260 260
288 288 287 286 285 284 284 283 282 281 280 279 279 278 277 276 276 275 275 274 274 273 273 273 272 272 271 271 271 270 270 269 269 269 268 268 267 267 267 266 266 266 266 266 265 265 265 265 265 265 265 265 264 264 264 264 263 263 263 263 263 262 262 262 262 262 262 261 261 261 261 261 261 260 260 260 260 260 259 259 259 259 259 259 259 259
290 289 288 287 287 286 285 284 283 282 281 280 280 279 278 277 277 276 276 275 275 274 274 273 273 272 272 271 271 270 270 270 269 269 268 268 267 267 267 266 266 266 266 265 265 265 265 265 265 265 264 264 264 264 263 263 263 263 262 262 262 262 261 261 261 261 261 261 260 260 260 260 260 259 259 259 259 259 259 258 258 258 258 258 258 258
291 290 289 289 288 287 286 285 284 283 282 281 281 280 279 278 278 277 276 276 275 275 274 274 273 273 272 272 271 271 270 270 269 269 268 268 267 267 267 266 266 266 265 265 265 265 265 264 264 264 264 264 263 263 263 263 262 262 262 261 261 261 261 260 260 260 260 260 260 259 259 259 259 258 258 258 258 258 258 257 257 257 257 257 257 257
292 291 290 289 288 287 286 286 285 284 283 282 281 281 280 279 278 278 277 277 276 276 275 274 274 273 273 272 272 271 271 270 269 269 268 268 268 267 267 267 266 266 266 265 265 265 264 264 264 264 263 263 263 263 263 262 262 262 261 261 261 260 260 260 259 259 259 259 259 258 258 258 258 258 257 257 257 256 256 256 256 256 256 256 256 256
292 292 291 290 289 288 287 286 285 284 283 283 282 281 281 280 279 279 278 278 277 276 276 275 274 274 273 273 272 271 271 270 270 269 269 269 268 268 267 267 267 266 266 265 265 265 264 264 264 263 263 263 263 262 262 262 262 262 261 261 260 260 260 259 259 259 258 258 258 258 257 257 257 257 256 256 256 255 255 255 255 255 255 254 254 254
293 292 291 290 289 288 287 286 286 285 284 283 283 282 281 281 280 279 279 278 277 277 276 275 275 274 274 273 272 272 272 271 270 270 270 269 269 268 268 267 267 266 266 265 265 264 264 264 263 263 263 263 262 262 262 262 261 261 261 261 260 260 259 259 259 258 258 258 257 257 257 256 256 256 256 255 255 255 254 254 254 253 253 253 253 253
293 292 291 290 290 289 288 287 286 285 285 284 283 282 282 281 281 280 280 279 278 277 277 276 275 275 274 274 273 273 272 272 271 270 270 269 269 268 268 267 267 266 266 265 265 264 264 264 263 263 263 262 262 262 262 261 261 261 261 260 260 260 259 259 258 258 257 257 257 256 256 256 256 255 255 255 254 254 254 253 253 252 252 252 252 252
293 292 292 291 290 289 288 287 287 286 285 285 284 283 282 282 281 281 280 279 279 278 277 277 276 276 275 274 274 273 272 272 271 271 270 270 269 268 268 267 267 266 266 265 265 264 264 264 263 263 263 262 262 262 261 261 261 261 260 260 260 260 259 259 258 258 257 257 256 256 256 255 255 255 254 254 254 253 253 253 252 252 251 251 251 251
293 293 292 291 290 289 289 288 287 286 286 285 284 284 283 282 282 281 281 280 279 279 278 278 277 276 276 275 274 274 273 272 272 271 270 270 269 268 268 267 267 266 266 265 265 264 264 264 263 263 262 262 262 261 261 261 261 260 260 260 260 259 259 259 258 258 257 257 256 256 255 255 255 254 254 254 253 253 253 252 252 251 251 251 250 250
294 293 292 291 291 290 289 288 288 287 286 285 285 284 284 283 282 282 281 280 280 279 279 278 278 277 276 275 275 274 274 273 272 271 271 270 269 268 268 267 267 266 266 265 265 265 264 264 263 263 263 262 262 262 261 261 261 260 260 260 260 259 259 259 258 258 257 257 256 256 255 255 254 254 254 253 253 253 252 252 251 251 250 250 250 249
294 293 292 292 291 290 289 288 288 287 287 286 285 285 284 284 283 282 281 281 280 280 279 279 278 277 277 276 275 274 274 273 273 272 271 270 269 269 268 267 267 267 266 266 265 265 265 264 264 263 263 262 262 262 261 261 260 260 260 260 259 259 259 258 258 258 257 257 256 256 255 255 254 254 253 253 253 252 252 251 251 251 250 250 249 249
295 294 293 292 291 290 289 288 288 287 287 286 286 285 285 284 283 283 282 281 280 280 279 279 278 277 277 276 275 275 274 274 273 272 272 271 270 269 268 268 267 267 266 266 266 265 265 265 264 264 263 263 262 262 261 261 261 260 260 260 259 259 259 258 258 258 257 257 256 256 255 255 254 254 253 253 253 252 252 251 251 250 250 249 249 248
295 294 293 292 291 290 289 289 288 287 287 286 286 286 285 284 284 283 282 281 281 280 280 279 278 278 277 276 275 275 274 274 273 272 272 271 271 270 269 269 268 267 267 266 266 265 265 265 264 264 263 263 262 262 261 261 261 260 260 260 259 259 259 258 258 258 257 257 256 256 255 255 254 254 253 253 253 252 252 251 251 250 250 249 248 248
295 294 293 292 291 290 290 289 288 287 287 286 286 286 285 284 284 283 282 282 281 281 280 279 279 278 277 276 276 275 274 274 273 273 272 272 271 271 270 269 269 268 268 267 266 266 265 265 264 264 263 263 262 262 262 261 261 261 260 260 259 259 259 258 258 258 257 257 256 256 255 255 254 254 254 253 253 252 252 251 251 250 249 249 248 248
295 294 293 292 292 291 290 289 289 288 287 287 286 286 285 284 284 283 283 282 282 281 280 280 279 278 277 277 276 276 275 274 274 273 272 272 272 271 271 270 269 269 268 268 267 266 265 265 264 264 263 263 263 262 262 262 261 261 260 260 260 259 259 259 258 258 257 257 257 256 256 255 255 254 254 253 253 252 252 251 250 250 249 249 248 248
294 294 293 292 292 291 291 290 289 289 288 288 287 286 286 285 284 284 283 282 282 281 281 280 279 279 278 278 277 276 276 275 274 274 273 272 272 271 271 270 270 269 269 268 268 267 266 265 264 264 263 263 263 263 262 262 261 261 261 260 260 259 259 259 258 258 258 257 257 256 256 255 255 254 254 253 253 252 251 251 250 250 249 249 248 248
294 293 293 293 292 292 291 291 290 290 290 289 288 288 287 286 285 285 284 283 283 282 281 280 280 279 279 278 278 277 277 276 275 274 273 273 272 272 271 271 270 270 269 269 268 267 267 266 265 265 264 264 263 263 262 262 261 261 261 260 260 260 259 259 259 258 258 258 257 256 256 255 255 254 254 253 253 252 251 251 250 250 249 249 248 247
294 293 293 293 292 292 292 291 291 291 290 290 289 289 288 287 286 286 285 284 283 283 282 281 280 280 279 278 278 277 277 276 276 275 274 274 273 272 272 271 270 270 269 269 268 267 267 266 266 265 265 264 264 263 263 262 261 261 261 260 260 260 259 259 259 259 258 258 257 257 256 255 255 254 253 253 252 252 251 251 250 250 249 248 248 247
294 294 293 293 292 292 291 291 291 291 290 290 289 289 288 288 287 286 285 285 284 283 282 281 280 279 279 278 278 277 277 276 276 275 275 274 274 273 272 272 271 270 269 269 268 267 267 266 266 266 265 265 264 264 263 262 262 261 261 260 260 260 260 259 259 259 258 258 257 257 256 255 255 254 253 253 252 252 251 251 250 250 249 248 248 247
295 294 293 293 292 292 291 291 290 290 290 289 289 288 288 287 287 286 285 284 284 283 282 281 280 279 279 278 278 277 277 276 276 275 275 274 274 274 273 272 271 270 270 269 268 267 267 266 266 266 265 265 264 264 263 263 262 262 261 261 260 260 260 259 259 259 258 258 257 257 256 255 255 254 253 253 252 252 251 251 250 249 249 248 248 247
295 294 294 293 293 292 291 291 290 289 289 289 288 288 287 287 286 286 285 284 283 282 282 281 280 279 278 278 277 277 276 276 275 275 274 274 274 274 273 272 272 271 270 269 269 268 267 267 266 266 265 265 264 264 263 263 263 262 262 261 261 260 260 259 259 259 258 258 257 257 256 256 255 254 254 253 252 252 251 250 250 249 249 248 248 247
295 295 294 293 293 292 291 290 290 289 289 288 288 287 287 286 286 285 285 284 283 282 281 281 280 279 278 278 277 276 276 275 274 274 274 274 274 273 273 272 272 271 271 270 269 269 268 267 266 266 265 264 264 263 263 263 262 262 262 261 261 260 260 259 259 258 258 258 257 257 256 256 255 254 254 253 252 252 251 250 250 249 249 248 248 247
295 295 294 294 293 292 291 291 290 289 289 288 288 287 287 286 286 285 285 284 283 282 281 281 280 279 278 278 277 276 276 275 274 274 273 273 273 273 273 272 272 271 271 271 270 269 269 268 267 266 265 264 263 263 263 263 262 262 262 262 261 261 260 260 259 259 258 257 257 257 256 256 255 254 254 253 252 252 251 250 250 249 249 248 248 247
296 295 295 294 293 293 292 291 290 290 289 288 288 288 287 287 286 286 285 284 283 283 282 281 280 280 279 278 278 277 276 275 274 274 273 273 273 272 272 272 271 271 271 271 270 270 269 269 268 267 265 264 264 263 263 262 262 262 262 262 261 261 260 260 259 259 258 258 257 257 256 256 255 255 254 253 253 252 251 250 250 249 249 248 247 247
296 296 295 294 294 293 292 292 291 290 289 289 288 288 287 287 287 286 286 285 284 284 283 282 281 280 280 279 279 278 277 276 275 274 274 273 272 271 271 271 271 271 271 270 270 270 270 269 268 267 266 265 264 263 263 262 262 262 262 262 261 261 261 260 259 259 258 258 257 257 256 256 255 254 254 253 253 252 251 251 250 249 249 248 247 247
296 296 295 295 294 293 293 292 291 291 290 289 288 288 288 287 287 286 286 286 285 285 284 283 282 282 281 281 280 279 278 278 277 275 274 273 272 271 271 271 271 270 270 270 270 270 270 269 268 267 266 265 264 263 263 262 262 262 262 261 261 261 261 260 260 259 258 258 257 257 256 256 255 254 254 253 253 252 251 251 250 249 249 248 248 247
296 296 295 294 294 293 293 292 292 291 290 289 289 288 287 287 287 286 286 286 286 285 285 284 284 283 282 282 281 280 279 279 278 276 275 274 273 272 271 271 270 270 270 270 270 270 270 269 269 268 267 266 265 264 263 262 262 261 261 261 261 261 261 261 260 259 259 258 257 257 256 256 255 255 254 253 253 252 251 251 250 250 249 248 248 247
296 295 295 294 293 293 292 292 291 291 290 290 289 288 287 287 286 286 285 285 285 285 285 284 284 284 283 282 281 281 280 279 278 277 276 275 274 273 272 271 271 270 270 270 270 270 270 270 269 268 267 266 265 264 263 262 262 261 261 261 261 261 261 261 260 260 259 258 258 257 257 256 255 255 254 253 253 252 252 251 250 250 249 249 248 247
296 295 295 294 293 293 292 292 291 290 290 289 289 288 287 286 286 285 285 284 284 284 284 284 284 283 283 283 282 281 280 279 278 277 277 276 275 274 273 272 272 271 270 270 270 270 270 270 269 268 268 267 266 265 264 263 262 261 261 261 261 261 261 261 260 260 259 258 258 257 257 256 255 255 254 253 253 252 252 251 250 250 249 249 248 247
296 296 295 295 294 293 292 292 291 290 289 289 288 287 286 286 285 284 284 283 283 283 283 283 283 283 283 283 282 281 280 279 278 278 277 276 275 274 274 273 273 272 271 271 270 270 270 270 269 269 268 267 266 266 265 264 263 262 261 261 261 261 261 261 261 260 259 259 258 258 257 256 256 255 254 254 253 252 252 251 251 250 249 249 248 248
296 296 296 295 294 294 293 292 291 291 290 289 288 287 286 286 285 284 283 282 282 281 281 282 282 282 282 282 282 282 281 280 279 278 276 275 274 274 274 273 273 273 272 271 271 270 270 270 270 269 268 267 267 266 265 264 263 262 262 261 261 261 261 261 261 261 260 259 258 258 257 256 256 255 254 254 253 252 252 251 251 250 249 249 248 248
296 296 296 295 295 294 294 293 292 292 291 290 290 289 288 287 286 285 283 282 281 280 280 280 280 280 281 281 281 281 281 280 279 278 276 275 274 273 273 273 273 273 272 272 271 271 271 270 270 269 269 268 267 266 265 264 263 263 262 262 261 261 262 262 261 261 260 259 259 258 257 257 256 255 254 254 253 252 251 251 250 250 249 249 248 248
296 296 295 295 295 295 294 294 293 293 293 292 291 291 290 289 288 287 286 284 283 281 280 279 279 278 279 279 280 280 280 280 279 278 277 275 273 272 272 271 271 271 271 271 271 271 271 270 270 270 269 269 268 267 265 264 264 263 262 262 262 262 262 262 262 261 261 260 259 258 258 257 256 255 254 254 253 252 251 251 250 250 249 249 249 248
296 295 295 295 295 295 295 294 294 294 294 293 293 292 292 291 290 290 288 287 286 284 282 281 279 278 278 278 278 278 278 278 278 277 277 275 273 272 271 270 270 270 270 270 270 270 270 270 270 270 270 269 268 267 266 265 264 263 262 262 261 261 262 262 262 262 261 260 259 259 258 257 256 255 255 254 253 252 251 251 250 250 249 249 248 248
296 295 295 295 295 295 295 295 295 294 294 294 294 293 293 292 292 291 290 289 287 286 285 283 281 280 279 278 277 277 277 277 277 277 276 275 274 272 271 270 269 268 268 268 268 269 269 269 269 270 270 270 269 268 267 265 264 263 262 262 261 261 261 262 262 262 261 260 260 259 258 257 256 255 254 254 253 252 251 250 250 249 249 248 248 248
296 296 296 296 296 296 296 295 295 295 295 295 294 294 294 293 293 292 291 290 289 288 286 285 283 282 280 279 278 277 276 276 276 276 276 275 274 273 271 270 268 267 267 267 267 267 268 268 269 269 269 270 269 268 267 266 265 264 263 262 261 261 261 261 261 261 261 260 260 259 258 257 256 255 254 253 252 251 250 249 249 248 248 248 248 247
297 297 297 297 297 297 297 297 296 296 296 295 295 295 294 294 294 294 293 292 291 290 289 287 285 284 282 280 278 277 276 275 275 275 275 275 274 273 272 271 269 268 266 265 265 265 266 267 268 269 269 269 269 269 268 267 266 265 264 262 261 260 260 260 261 261 261 260 260 259 258 257 256 255 254 253 252 251 250 249 248 248 247 247 247 246
299 299 299 299 298 298 298 298 297 297 297 297 297 296 296 296 297 297 296 296 295 294 293 291 290 287 285 282 280 278 277 276 275 275 275 274 274 274 273 272 270 268 267 265 264 264 265 265 267 268 268 269 269 268 268 267 266 265 264 263 261 260 259 259 260 260 260 260 259 258 258 256 256 255 254 253 252 251 250 249 248 247 247 246 246 246
300 300 300 300 299 299 299 299 298 298 298 298 298 298 299 299 300 300 300 299 299 298 297 296 294 292 288 285 282 280 278 276 275 275 274 274 274 274 273 272 271 269 268 266 264 264 263 264 265 266 267 267 268 268 267 267 266 265 264 263 262 260 259 258 258 259 259 259 259 258 257 256 255 254 253 253 252 251 250 249 248 247 246 246 246 245
300 300 300 300 300 299 299 299 299 298 299 299 299 299 300 300 300 301 301 300 300 299 299 297 296 294 291 288 285 282 279 278 276 275 275 274 274 274 274 273 272 271 269 267 265 264 263 263 264 265 265 266 267 267 267 267 266 265 264 263 262 260 258 257 257 257 257 258 258 257 257 256 255 254 254 253 252 251 250 249 248 247 246 246 245 245
301 300 300 300 300 300 299 299 299 299 299 299 299 299 300 300 300 299 299 299 298 298 297 297 296 294 292 290 287 284 282 279 277 276 275 275 275 275 275 274 273 272 270 268 266 264 263 263 263 263 264 265 265 266 266 266 266 265 264 263 262 260 258 256 255 255 256 256 257 257 257 256 256 255 254 253 252 251 250 249 248 247 246 245 245 245
301 301 301 301 300 300 300 300 299 299 299 299 298 298 298 298 298 297 297 296 296 296 295 295 295 294 292 291 289 286 284 281 279 277 276 275 275 275 275 274 274 272 271 269 267 265 264 263 262 262 263 263 264 265 265 266 266 265 264 263 262 260 259 257 255 254 254 254 255 256 257 257 256 256 255 254 252 251 250 249 248 246 246 245 245 244
301 301 301 301 300 300 300 300 299 299 298 298 297 297 296 296 295 295 294 294 294 294 294 294 294 293 293 292 290 288 286 283 281 278 277 276 275 275 275 275 274 273 271 269 267 265 264 263 262 262 262 262 263 264 265 265 265 265 264 263 262 261 259 258 256 254 254 254 254 255 256 256 256 255 255 254 253 251 250 249 247 246 245 245 244 244
299 299 299 299 298 298 298 298 297 297 296 296 295 295 295 294 294 293 293 293 293 293 293 293 293 293 293 293 292 290 288 286 283 280 278 276 276 275 275 275 274 273 271 269 268 266 264 263 262 262 262 262 263 264 264 265 265 265 264 263 262 261 260 259 257 256 255 254 254 254 254 255 255 255 254 254 253 252 250 249 248 246 245 244 244 244
296 296 296 295 295 295 295 295 295 295 295 295 294 294 294 293 293 293 293 293 292 292 293 293 293 293 293 293 293 291 290 288 285 283 280 278 276 276 275 275 274 273 271 269 268 266 265 264 263 262 262 262 263 263 264 264 264 264 264 263 262 261 261 260 259 257 256 255 254 253 253 253 253 254 254 253 253 252 251 250 249 247 246 245 244 243
293 293 293 293 293 293 294 294 294 295 295 295 295 295 294 294 294 294 294 293 293 293 293 293 293 293 293 293 292 292 291 290 287 285 282 280 278 276 275 274 273 272 271 270 268 267 266 265 264 263 263 263 263 264 264 263 263 263 263 262 262 262 261 261 260 259 257 256 254 253 253 252 252 252 253 253 252 252 252 251 249 248 246 245 244 243
294 294 294 293 294 294 294 294 295 295 296 296 296 296 295 295 295 295 294 294 294 293 293 293 293 292 292 292 292 292 291 290 289 287 284 282 279 277 276 274 273 272 271 270 269 268 267 266 264 263 263 263 263 263 263 262 262 261 261 261 261 262 262 261 260 259 257 256 255 254 253 252 252 251 251 251 251 252 251 251 250 249 247 246 245 244
296 296 296 296 296 296 296 297 297 297 297 297 297 297 297 296 296 295 295 294 294 294 293 293 293 292 292 292 291 291 291 290 289 288 286 283 281 279 277 275 274 272 271 270 269 268 268 266 265 264 263 263 262 262 262 261 260 260 260 260 261 261 260 260 259 258 257 255 254 253 252 252 251 251 250 250 250 250 250 250 250 249 248 247 246 244
Height
10340 10334 10329 10325 10322 10318 10314 10309 10306 10303 10300 10295 10291 10288 10287 10283 10279 10276 10274 10273 10271 10270 10269 10269 10268 10268 10268 10267 10267 10266 10266 10265 10264 10264 10263 10262 10261 10260 10259 10259 10259 10258 10258 10258 10259 10259 10260 10261 10263 10264 10266 10268 10269 10271 10273 10275 10277 10279 10281 10283 10285 10288 10289 10292 10294 10297 10299 10302 10304 10307 10309 10312 10315 10318 10320 10323 10326 10329 10331 10333 10334 10336 10338 10339 10341 10343
10323 10318 10313 10309 10306 10303 10299 10294 10290 10288 10284 10281 10276 10273 10271 10269 10266 10262 10259 10258 10257 10255 10254 10254 10253 10253 10253 10252 10251 10251 10251 10250 10250 10249 10249 10248 10248 10247 10246 10246 10245 10244 10244 10244 10245 10246 10246 10248 10249 10250 10252 10254 10256 10258 10259 10261 10263 10265 10267 10269 10271 10273 10275 10278 10280 10283 10285 10288 10290 10293 10295 10298 10301 10303 10306 10309 10313 10316 10318 10321 10323 10325 10326 10328 10329 10332
10306 10301 10296 10292 10289 10286 10283 10278 10274 10271 10269 10265 10262 10259 10256 10254 10251 10248 10245 10244 10242 10241 10239 10239 10239 10238 10238 10237 10236 10236 10236 10235 10235 10235 10235 10234 10234 10233 10233 10232 10231 10231 10231 10231 10232 10232 10233 10234 10235 10236 10238 10239 10241 10243 10246 10248 10249 10251 10253 10255 10257 10259 10261 10263 10266 10268 10271 10273 10276 10278 10281 10283 10286 10289 10292 10295 10298 10302 10305 10308 10311 10313 10315 10317 10319 10321
10290 10285 10281 10276 10273 10270 10266 10262 10258 10254 10252 10249 10247 10244 10241 10239 10236 10234 10231 10230 10228 10227 10226 10225 10224 10224 10224 10223 10222 10222 10221 10221 10221 10221 10221 10221 10220 10219 10219 10218 10218 10218 10218 10218 10219 10219 10219 10221 10221 10223 10224 10225 10227 10229 10231 10233 10235 10237 10239 10241 10243 10245 10248 10249 10251 10254 10256 10259 10261 10264 10266 10269 10272 10274 10278 10281 10284 10288 10291 10294 10298 10301 10303 10305 10308 10309
10273 10269 10265 10261 10258 10254 10250 10246 10243 10239 10236 10234 10232 10229 10227 10224 10223 10220 10218 10217 10215 10214 10213 10212 10211 10211 10210 10209 10209 10208 10208 10208 10208 10208 10207 10206 10206 10205 10205 10205 10205 10205 10206 10206 10206 10206 10207 10208 10209 10209 10211 10212 10213 10215 10217 10219 10221 10223 10225 10227 10229 10231 10234 10236 10238 10240 10243 10245 10248 10250 10253 10255 10258 10261 10264 10267 10270 10273 10277 10280 10284 10287 10290 10293 10295 10298
10258 10254 10250 10246 10243 10239 10235 10231 10228 10224 10221 10219 10218 10216 10214 10211 10209 10208 10206 10204 10203 10202 10201 10200 10199 10198 10198 10196 10196 10195 10195 10195 10194 10194 10194 10193 10193 10193 10193 10193 10193 10193 10194 10194 10194 10194 10195 10196 10196 10198 10198 10199 10201 10202 10203 10205 10207 10209 10211 10213 10216 10218 10220 10223 10224 10227 10229 10231 10234 10236 10239 10241 10244 10247 10249 10253 10256 10259 10263 10266 10270 10273 10277 10280 10283 10285
10243 10239 10236 10232 10228 10224 10221 10218 10214 10210 10208 10206 10205 10203 10201 10199 10197 10195 10194 10193 10191 10191 10189 10188 10188 10186 10185 10184 10184 10183 10183 10183 10183 10182 10181 10181 10181 10181 10181 10181 10181 10182 10182 10183 10183 10183 10184 10184 10184 10185 10186 10188 10188 10189 10191 10193 10194 10196 10198 10200 10202 10204 10207 10209 10211 10214 10216 10218 10220 10223 10225 10228 10230 10233 10236 10239 10242 10246 10249 10253 10256 10259 10263 10266 10269 10273
10230 10226 10222 10218 10214 10211 10208 10204 10201 10198 10196 10195 10193 10191 10189 10188 10186 10184 10183 10182 10181 10179 10178 10177 10176 10175 10174 10173 10173 10173 10172 10172 10171 10171 10171 10171 10171 10171 10171 10171 10171 10171 10171 10171 10172 10172 10173 10173 10173 10174 10175 10176 10178 10179 10180 10181 10183 10184 10185 10187 10189 10191 10194 10196 10199 10201 10203 10206 10208 10210 10212 10214 10217 10219 10222 10225 10228 10232 10235 10239 10242 10246 10249 10253 10256 10259
10218 10214 10209 10206 10202 10199 10196 10193 10189 10187 10185 10184 10183 10181 10179 10177 10175 10174 10173 10172 10170 10169 10168 10166 10166 10164 10164 10163 10163 10163 10162 10162 10161 10161 10161 10161 10161 10161 10161 10161 10161 10161 10161 10161 10161 10161 10162 10162 10163 10164 10165 10166 10168 10169 10169 10171 10171 10173 10174 10175 10177 10179 10182 10184 10187 10189 10191 10193 10196 10198 10199 10202 10204 10206 10209 10211 10214 10218 10221 10225 10229 10233 10236 10240 10243 10247
10206 10202 10198 10194 10191 10188 10184 10181 10178 10176 10174 10173 10172 10171 10169 10168 10166 10165 10164 10162 10160 10158 10158 10157 10156 10155 10154 10153 10153 10153 10153 10153 10152 10151 10151 10151 10151 10151 10151 10151 10151 10151 10151 10151 10151 10151 10152 10153 10153 10154 10156 10156 10158 10158 10159 10160 10161 10162 10163 10164 10166 10168 10170 10173 10175 10177 10179 10181 10184 10186 10188 10190 10192 10194 10196 10199 10202 10205 10208 10212 10216 10219 10223 10227 10231 10234
10194 10191 10188 10184 10180 10177 10174 10171 10168 10166 10164 10163 10162 10161 10160 10159 10158 10156 10154 10152 10150 10149 10149 10148 10148 10146 10145 10144 10144 10144 10144 10143 10143 10143 10143 10142 10142 10141 10141 10141 10141 10141 10141 10141 10142 10142 10143 10143 10144 10145 10146 10147 10148 10149 10149 10150 10151 10152 10153 10154 10156 10158 10159 10161 10164 10166 10168 10170 10172 10174 10176 10179 10181 10183 10184 10187 10189 10193 10196 10199 10203 10207 10211 10214 10218 10223
10184 10181 10178 10174 10170 10167 10164 10161 10159 10158 10156 10154 10153 10151 10150 10150 10149 10148 10146 10144 10142 10141 10140 10139 10139 10138 10137 10136 10135 10135 10135 10135 10134 10134 10134 10133 10133 10133 10133 10133 10133 10133 10133 10133 10133 10133 10134 10135 10136 10137 10138 10138 10139 10139 10140 10141 10143 10143 10144 10145 10146 10148 10149 10151 10153 10155 10157 10159 10161 10164 10166 10168 10170 10172 10174 10176 10178 10181 10184 10188 10191 10195 10199 10203 10206 10211
10174 10171 10168 10164 10161 10158 10155 10153 10151 10149 10147 10145 10144 10143 10142 10141 10141 10140 10139 10137 10134 10133 10133 10131 10131 10129 10129 10128 10128 10127 10127 10127 10126 10126 10125 10125 10124 10124 10124 10124 10124 10124 10124 10124 10124 10125 10126 10127 10128 10129 10129 10129 10130 10131 10132 10133 10134 10135 10136 10136 10138 10139 10140 10141 10143 10145 10147 10149 10151 10154 10156 10158 10159 10161 10164 10166 10168 10171 10174 10177 10180 10184 10187 10191 10195 10199
10165 10163 10159 10156 10153 10149 10147 10144 10143 10141 10138 10137 10136 10136 10135 10134 10133 10132 10131 10129 10128 10126 10126 10124 10123 10122 10121 10120 10119 10119 10119 10119 10119 10118 10117 10116 10116 10116 10117 10117 10117 10116 10116 10117 10117 10118 10119 10119 10120 10121 10121 10121 10122 10123 10124 10125 10126 10127 10128 10128 10129 10130 10131 10133 10134 10136 10138 10140 10142 10144 10146 10148 10150 10152 10154 10156 10158 10161 10163 10166 10169 10173 10176 10180 10184 10188
10156 10153 10151 10148 10144 10141 10139 10137 10135 10133 10131 10130 10129 10128 10128 10126 10126 10124 10123 10122 10121 10119 10119 10118 10116 10114 10113 10113 10112 10113 10113 10113 10111 10110 10109 10108 10108 10109 10109 10110 10110 10109 10109 10110 10110 10111 10112 10113 10113 10113 10113 10114 10114 10115 10116 10117 10118 10119 10119 10121 10121 10122 10123 10124 10126 10128 10129 10131 10134 10136 10138 10139 10141 10143 10145 10147 10149 10151 10154 10156 10159 10163 10166 10169 10173 10176
10148 10145 10142 10139 10136 10134 10131 10129 10128 10126 10124 10123 10123 10121 10121 10119 10118 10118 10116 10115 10114 10113 10112 10111 10109 10108 10106 10105 10105 10106 10106 10106 10105 10103 10102 10101 10101 10101 10103 10103 10103 10103 10103 10103 10104 10104 10105 10106 10106 10106 10106 10106 10108 10108 10109 10110 10111 10111 10113 10113 10114 10114 10115 10116 10118 10119 10121 10123 10126 10128 10129 10131 10133 10134 10136 10138 10141 10143 10145 10148 10150 10153 10156 10160 10163 10166
10139 10136 10134 10131 10129 10126 10124 10123 10121 10119 10118 10117 10116 10115 10114 10113 10112 10111 10109 10108 10108 10106 10106 10104 10103 10101 10099 10098 10098 10099 10099 10099 10099 10097 10096 10094 10094 10094 10096 10096 10096 10096 10096 10096 10098 10098 10099 10099 10099 10099 10099 10100 10101 10101 10103 10103 10104 10104 10105 10106 10106 10107 10108 10109 10110 10112 10114 10116 10118 10119 10121 10123 10125 10126 10128 10130 10133 10134 10136 10139 10141 10144 10148 10151 10154 10157
10132 10129 10126 10124 10121 10119 10117 10115 10114 10113 10112 10111 10110 10109 10108 10106 10106 10104 10103 10103 10101 10101 10099 10098 10097 10095 10094 10092 10091 10092 10094 10094 10093 10091 10090 10089 10088 10088 10089 10090 10090 10089 10089 10090 10091 10092 10093 10093 10093 10093 10093 10094 10095 10096 10096 10097 10098 10098 10098 10099 10099 10100 10101 10102 10103 10105 10107 10109 10111 10113 10114 10116 10117 10119 10121 10123 10124 10126 10129 10131 10133 10136 10139 10141 10144 10148
10125 10122 10119 10117 10115 10113 10111 10108 10106 10106 10104 10104 10103 10103 10101 10100 10099 10098 10098 10096 10096 10094 10094 10092 10091 10089 10088 10087 10086 10086 10087 10088 10087 10086 10084 10083 10083 10083 10084 10084 10084 10084 10083 10084 10085 10086 10086 10086 10086 10087 10088 10089 10089 10090 10091 10091 10091 10091 10092 10092 10093 10093 10094 10095 10097 10098 10100 10102 10104 10105 10107 10108 10110 10111 10113 10115 10116 10119 10121 10123 10125 10128 10130 10133 10136 10139
10120 10117 10114 10111 10109 10107 10104 10101 10099 10098 10098 10097 10096 10096 10094 10093 10093 10092 10091 10091 10090 10089 10088 10086 10085 10083 10083 10081 10081 10080 10081 10082 10081 10080 10079 10078 10077 10077 10078 10079 10079 10078 10078 10078 10079 10079 10080 10079 10080 10081 10082 10083 10084 10084 10084 10085 10085 10085 10085 10086 10086 10087 10088 10089 10091 10092 10094 10095 10097 10099 10100 10101 10103 10104 10106 10108 10109 10111 10113 10115 10118 10120 10123 10125 10128 10131
10114 10111 10109 10107 10104 10102 10099 10096 10094 10092 10091 10090 10089 10089 10088 10087 10086 10086 10085 10084 10084 10083 10082 10081 10079 10078 10077 10076 10075 10075 10076 10076 10076 10074 10073 10072 10071 10071 10073 10074 10073 10073 10073 10073 10073 10074 10074 10074 10074 10076 10077 10078 10078 10079 10079 10079 10079 10079 10079 10080 10081 10081 10082 10083 10084 10086 10088 10089 10091 10092 10093 10095 10096 10098 10099 10101 10103 10104 10106 10108 10110 10112 10114 10118 10120 10123
10108 10106 10103 10101 10100 10098 10094 10092 10089 10088 10086 10085 10084 10083 10082 10081 10081 10080 10079 10079 10078 10078 10076 10076 10074 10073 10072 10071 10071 10070 10071 10071 10070 10069 10068 10067 10066 10066 10068 10068 10068 10067 10067 10067 10068 10068 10068 10069 10069 10071 10072 10073 10073 10073 10073 10073 10073 10073 10074 10074 10075 10076 10077 10078 10079 10080 10081 10083 10084 10086 10087 10088 10090 10091 10093 10094 10096 10098 10099 10101 10103 10105 10107 10110 10113 10115
10103 10100 10098 10096 10094 10093 10091 10088 10086 10083 10082 10080 10079 10078 10077 10076 10076 10075 10074 10074 10073 10072 10071 10070 10069 10068 10067 10066 10066 10066 10066 10066 10065 10064 10064 10063 10061 10061 10062 10063 10063 10061 10061 10061 10062 10063 10063 10064 10064 10066 10067 10068 10068 10067 10067 10067 10068 10068 10068 10069 10069 10070 10071 10073 10074 10074 10076 10077 10078 10079 10081 10082 10084 10085 10086 10088 10089 10091 10093 10094 10096 10098 10100 10103 10105 10108
10096 10094 10092 10091 10089 10088 10086 10084 10082 10079 10078 10076 10074 10073 10073 10071 10071 10070 10069 10069 10068 10068 10066 10066 10064 10063 10062 10062 10061 10061 10061 10061 10061 10060 10059 10058 10057 10056 10057 10057 10057 10056 10056 10056 10056 10058 10058 10059 10060 10061 10062 10063 10062 10062 10062 10062 10062 10062 10063 10063 10064 10065 10066 10067 10068 10069 10070 10071 10073 10073 10074 10076 10078 10079 10080 10082 10083 10084 10086 10088 10089 10091 10093 10096 10098 10101
10090 10088 10086 10085 10084 10082 10081 10079 10078 10075 10074 10072 10071 10069 10068 10067 10066 10066 10065 10064 10064 10063 10062 10061 10060 10058 10057 10057 10057 10057 10056 10056 10056 10056 10055 10054 10053 10052 10051 10052 10052 10051 10051 10050 10051 10052 10053 10054 10055 10056 10057 10058 10058 10057 10057 10057 10057 10057 10058 10058 10058 10059 10061 10061 10063 10064 10065 10066 10067 10068 10069 10070 10071 10073 10074 10076 10077 10079 10080 10082 10084 10085 10087 10089 10091 10094
10085 10083 10081 10079 10078 10077 10076 10074 10073 10071 10069 10068 10066 10065 10064 10063 10063 10062 10061 10059 10059 10059 10058 10057 10055 10054 10053 10053 10053 10052 10052 10052 10052 10052 10051 10050 10049 10048 10047 10048 10048 10047 10046 10045 10046 10046 10048 10049 10050 10051 10053 10053 10053 10053 10053 10053 10053 10053 10053 10053 10053 10054 10055 10056 10058 10058 10059 10061 10061 10063 10063 10064 10066 10067 10068 10070 10071 10073 10074 10076 10078 10079 10081 10083 10085 10088
10080 10078 10076 10074 10073 10072 10071 10069 10068 10066 10065 10064 10063 10062 10061 10061 10060 10059 10056 10055 10055 10054 10054 10052 10051 10049 10049 10048 10048 10048 10048 10048 10048 10048 10048 10046 10045 10043 10043 10043 10043 10043 10042 10041 10041 10041 10043 10044 10045 10046 10048 10048 10048 10048 10048 10048 10048 10048 10048 10048 10048 10049 10050 10051 10052 10053 10054 10055 10056 10058 10058 10059 10061 10062 10063 10064 10066 10067 10069 10070 10072 10073 10075 10077 10079 10081
10074 10073 10071 10069 10068 10066 10066 10064 10063 10062 10061 10059 10059 10058 10058 10058 10057 10054 10052 10051 10050 10049 10048 10048 10046 10045 10044 10044 10043 10043 10043 10043 10043 10044 10044 10043 10041 10039 10039 10039 10039 10039 10038 10037 10036 10037 10038 10039 10040 10041 10042 10043 10043 10043 10044 10044 10044 10043 10043 10043 10043 10044 10045 10046 10047 10048 10049 10051 10051 10053 10053 10054 10056 10056 10058 10059 10060 10062 10063 10064 10066 10068 10069 10071 10073 10075
10068 10067 10065 10064 10063 10062 10061 10060 10059 10057 10056 10055 10054 10053 10052 10052 10051 10049 10047 10046 10046 10044 10043 10042 10041 10041 10040 10039 10039 10038 10038 10038 10039 10039 10040 10039 10037 10035 10035 10035 10035 10034 10034 10033 10033 10032 10033 10034 10035 10036 10037 10038 10038 10039 10039 10039 10039 10039 10039 10039 10039 10039 10040 10041 10043 10043 10044 10046 10046 10048 10048 10049 10051 10052 10053 10054 10055 10056 10058 10059 10061 10063 10064 10066 10068 10069
10064 10062 10061 10059 10058 10058 10058 10056 10054 10053 10051 10051 10049 10049 10048 10047 10046 10044 10043 10043 10041 10040 10038 10038 10036 10036 10036 10035 10034 10034 10033 10033 10034 10035 10036 10034 10033 10031 10031 10031 10031 10031 10031 10030 10029 10028 10028 10029 10030 10031 10033 10033 10034 10034 10035 10035 10035 10035 10034 10034 10034 10035 10036 10036 10038 10039 10040 10041 10042 10043 10044 10044 10046 10047 10048 10049 10050 10052 10053 10054 10056 10058 10059 10061 10062 10064
10059 10058 10056 10055 10054 10054 10053 10051 10050 10048 10047 10046 10045 10044 10044 10043 10042 10041 10039 10039 10038 10036 10035 10033 10032 10031 10031 10031 10031 10029 10029 10029 10029 10031 10031 10030 10029 10028 10028 10028 10028 10027 10027 10026 10026 10024 10024 10024 10026 10027 10028 10028 10029 10030 10031 10031 10031 10031 10031 10031 10031 10031 10031 10032 10033 10034 10036 10036 10038 10038 10039 10040 10041 10043 10043 10044 10046 10047 10048 10049 10051 10053 10054 10055 10057 10059
10054 10053 10052 10051 10049 10049 10048 10047 10046 10044 10043 10042 10041 10040 10039 10039 10038 10037 10036 10035 10034 10033 10031 10030 10028 10028 10027 10026 10026 10025 10024 10024 10025 10026 10027 10026 10024 10024 10023 10023 10023 10023 10023 10023 10022 10021 10020 10020 10021 10023 10023 10024 10024 10025 10026 10027 10027 10027 10027 10027 10027 10027 10027 10028 10029 10030 10031 10033 10033 10034 10035 10036 10037 10038 10039 10040 10041 10043 10044 10045 10046 10048 10049 10051 10052 10053
10048 10048 10046 10046 10044 10044 10043 10043 10041 10040 10039 10038 10037 10036 10036 10035 10034 10034 10033 10032 10031 10029 10028 10026 10025 10024 10023 10022 10021 10021 10020 10019 10020 10021 10023 10022 10021 10019 10019 10019 10019 10019 10019 10019 10018 10018 10017 10016 10017 10018 10019 10019 10021 10021 10022 10023 10023 10023 10023 10023 10023 10023 10023 10024 10024 10026 10027 10028 10029 10030 10031 10031 10033 10033 10034 10036 10037 10038 10039 10040 10041 10043 10044 10046 10047 10048
10044 10043 10042 10041 10040 10039 10039 10038 10037 10036 10035 10034 10033 10033 10032 10031 10031 10030 10029 10029 10028 10026 10025 10024 10022 10021 10019 10018 10018 10016 10015 10015 10016 10017 10018 10018 10017 10016 10016 10015 10015 10016 10016 10015 10014 10014 10013 10013 10013 10014 10014 10016 10016 10018 10018 10018 10019 10019 10019 10019 10019 10019 10019 10020 10021 10022 10023 10024 10025 10026 10026 10028 10028 10029 10030 10031 10033 10034 10035 10036 10037 10038 10040 10041 10043 10044
10041 10039 10038 10037 10036 10035 10034 10034 10033 10031 10031 10029 10029 10028 10028 10027 10026 10026 10025 10024 10024 10023 10023 10021 10019 10018 10017 10016 10014 10013 10011 10011 10011 10012 10013 10013 10013 10012 10012 10011 10011 10012 10012 10011 10011 10010 10009 10009 10009 10009 10011 10011 10013 10014 10014 10014 10014 10015 10015 10016 10016 10016 10016 10016 10017 10018 10019 10020 10021 10022 10023 10023 10024 10025 10026 10027 10028 10029 10031 10032 10033 10034 10036 10037 10038 10039
10037 10035 10034 10033 10031 10031 10029 10028 10028 10026 10025 10024 10024 10023 10022 10022 10021 10021 10021 10020 10019 10019 10019 10018 10016 10016 10014 10013 10011 10009 10008 10007 10007 10007 10008 10008 10009 10009 10008 10008 10008 10008 10008 10008 10007 10007 10006 10006 10006 10006 10006 10008 10008 10009 10010 10011 10011 10011 10012 10012 10013 10013 10013 10013 10013 10014 10015 10016 10017 10018 10018 10019 10020 10021 10022 10023 10024 10025 10026 10028 10029 10030 10031 10033 10034 10035
10033 10031 10030 10029 10028 10027 10026 10024 10023 10022 10021 10020 10019 10018 10018 10017 10016 10016 10016 10015 10015 10014 10014 10014 10013 10012 10011 10009 10008 10006 10004 10003 10003 10003 10003 10003 10004 10004 10004 10004 10004 10004 10004 10004 10003 10003 10003 10002 10001 10002 10003 10003 10004 10006 10006 10007 10008 10008 10008 10009 10009 10009 10009 10009 10009 10010 10011 10012 10013 10014 10014 10015 10016 10017 10018 10019 10020 10021 10022 10023 10024 10026 10027 10028 10029 10031
10030 10028 10027 10026 10024 10023 10022 10021 10019 10019 10018 10016 10016 10014 10014 10013 10013 10012 10011 10011 10011 10011 10011 10010 10009 10008 10007 10006 10004 10003 10001 10000 9999 9999 9999 9999 9999 9999 10000 10000 10000 10000 10000 10000 10000 9999 9999 9998 9998 9998 9999 9999 10000 10001 10002 10003 10004 10004 10005 10006 10006 10006 10006 10006 10006 10006 10007 10008 10009 10009 10011 10011 10012 10013 10014 10014 10016 10017 10018 10019 10020 10021 10023 10023 10025 10026
10027 10025 10024 10023 10021 10020 10019 10018 10016 10015 10014 10013 10012 10011 10010 10009 10009 10008 10008 10007 10006 10006 10005 10004 10004 10003 10003 10002 10001 9999 9998 9997 9996 9995 9995 9995 9995 9995 9996 9996 9996 9996 9996 9996 9996 9996 9995 9994 9994 9994 9995 9996 9996 9998 9998 9999 9999 10001 10001 10002 10003 10003 10003 10003 10003 10003 10003 10004 10005 10006 10006 10007 10008 10009 10009 10011 10011 10013 10014 10015 10016 10017 10018 10019 10021 10022
10024 10022 10021 10019 10018 10017 10016 10014 10013 10012 10011 10010 10009 10008 10007 10006 10005 10004 10003 10003 10002 10001 10001 10000 9999 9999 9998 9998 9996 9996 9994 9994 9993 9992 9991 9991 9991 9991 9991 9991 9992 9993 9993 9993 9993 9992 9992 9991 9991 9991 9991 9992 9993 9993 9994 9995 9996 9997 9998 9999 9999 10000 10000 10000 9999 9999 9999 10000 10001 10002 10003 10003 10004 10004 10006 10006 10008 10009 10010 10011 10012 10013 10014 10015 10016 10018
10021 10019 10018 10016 10015 10014 10013 10011 10010 10009 10008 10007 10006 10004 10004 10003 10002 10001 9999 9999 9998 9997 9996 9996 9995 9994 9994 9993 9993 9992 9991 9990 9989 9988 9988 9988 9988 9987 9987 9987 9988 9988 9989 9989 9989 9989 9988 9988 9988 9988 9988 9988 9989 9989 9990 9991 9992 9993 9994 9995 9996 9996 9997 9997 9996 9996 9996 9996 9997 9998 9999 9999 10000 10001 10001 10003 10004 10005 10006 10008 10008 10009 10011 10011 10013 10013
10018 10016 10014 10013 10012 10011 10009 10008 10007 10006 10004 10004 10003 10001 10000 9999 9998 9997 9996 9995 9994 9993 9993 9992 9991 9991 9989 9989 9988 9988 9987 9986 9986 9985 9984 9984 9984 9983 9983 9983 9983 9984 9985 9985 9985 9985 9984 9984 9984 9984 9984 9985 9985 9986 9986 9987 9988 9989 9990 9991 9992 9993 9994 9994 9994 9993 9993 9993 9993 9994 9994 9995 9996 9997 9998 9999 10000 10001 10003 10004 10004 10006 10007 10008 10009 10009
10014 10013 10011 10010 10009 10008 10006 10005 10004 10003 10001 10001 9999 9998 9997 9996 9995 9994 9993 9991 9991 9989 9989 9988 9988 9987 9986 9985 9984 9984 9984 9983 9983 9981 9981 9981 9980 9979 9979 9979 9979 9980 9981 9981 9981 9981 9981 9981 9981 9981 9981 9981 9981 9982 9983 9983 9984 9986 9986 9988 9988 9989 9990 9990 9991 9990 9990 9989 9990 9990 9991 9991 9993 9993 9994 9995 9996 9998 9999 10000 10001 10003 10003 10004 10005 10006
10011 10009 10008 10007 10006 10004 10003 10002 10001 9999 9998 9997 9996 9995 9994 9993 9992 9991 9990 9989 9988 9987 9986 9985 9984 9983 9983 9981 9981 9980 9979 9979 9979 9978 9978 9977 9976 9976 9975 9975 9976 9976 9977 9978 9978 9978 9978 9978 9978 9978 9978 9978 9978 9978 9979 9980 9981 9982 9983 9984 9984 9985 9986 9987 9987 9987 9987 9987 9987 9987 9988 9988 9989 9990 9991 9992 9993 9994 9995 9996 9998 9999 10000 10001 10002 10003
10008 10006 10005 10004 10003 10001 10000 9999 9998 9996 9995 9994 9993 9992 9991 9991 9989 9988 9988 9986 9985 9984 9983 9982 9981 9980 9979 9978 9978 9976 9976 9976 9975 9974 9974 9973 9973 9972 9972 9972 9972 9973 9973 9973 9974 9974 9974 9974 9974 9974 9974 9974 9974 9975 9976 9976 9978 9978 9979 9979 9980 9981 9982 9983 9984 9984 9984 9984 9984 9984 9984 9985 9986 9986 9988 9989 9989 9991 9992 9993 9994 9995 9996 9998 9998 9999
10005 10004 10002 10001 9999 9998 9997 9996 9994 9993 9992 9991 9990 9989 9989 9988 9987 9986 9984 9984 9983 9981 9980 9979 9978 9978 9976 9975 9974 9973 9973 9972 9971 9971 9970 9969 9969 9968 9968 9968 9968 9969 9969 9969 9970 9970 9970 9970 9970 9971 9971 9971 9971 9971 9972 9973 9974 9974 9975 9976 9976 9977 9978 9979 9979 9981 9981 9981 9981 9981 9981 9982 9983 9983 9984 9985 9986 9987 9988 9989 9991 9992 9993 9994 9995 9996
10003 10001 10000 9998 9997 9996 9994 9993 9991 9990 9989 9988 9987 9986 9986 9984 9984 9983 9982 9981 9979 9978 9977 9976 9975 9974 9973 9972 9971 9969 9969 9968 9968 9967 9966 9966 9966 9965 9965 9964 9965 9965 9966 9966 9966 9966 9966 9966 9967 9967 9968 9968 9968 9968 9969 9970 9970 9971 9971 9971 9972 9973 9973 9974 9976 9977 9978 9978 9978 9978 9978 9979 9979 9980 9981 9982 9983 9984 9985 9986 9987 9988 9989 9991 9992 9993
10001 9999 9998 9996 9995 9993 9992 9990 9989 9988 9986 9985 9984 9983 9983 9981 9981 9979 9978 9978 9976 9975 9974 9973 9971 9970 9969 9968 9967 9966 9965 9964 9964 9963 9963 9963 9962 9961 9961 9961 9961 9962 9962 9962 9963 9963 9963 9963 9963 9964 9964 9964 9965 9965 9966 9966 9967 9967 9968 9968 9968 9969 9969 9971 9972 9973 9974 9974 9975 9975 9975 9976 9976 9977 9978 9979 9979 9981 9981 9983 9984 9985 9986 9988 9988 9989
9998 9997 9995 9994 9992 9991 9989 9988 9986 9984 9983 9982 9981 9979 9979 9978 9977 9976 9975 9974 9973 9971 9970 9969 9968 9967 9966 9965 9964 9963 9963 9961 9961 9960 9959 9959 9959 9958 9958 9958 9958 9958 9958 9959 9959 9959 9959 9959 9959 9960 9961 9961 9962 9963 9963 9963 9963 9964 9964 9964 9964 9965 9966 9967 9968 9969 9970 9971 9971 9971 9972 9972 9973 9974 9974 9975 9976 9977 9978 9979 9981 9981 9983 9984 9985 9986
9994 9993 9992 9990 9989 9987 9986 9984 9983 9981 9979 9978 9976 9976 9974 9974 9973 9972 9971 9970 9969 9968 9967 9966 9964 9963 9963 9961 9961 9960 9959 9959 9958 9957 9956 9956 9956 9955 9955 9955 9955 9955 9955 9955 9955 9956 9956 9956 9956 9956 9957 9958 9959 9959 9959 9959 9960 9960 9960 9961 9961 9962 9963 9964 9965 9966 9966 9967 9968 9968 9968 9969 9969 9970 9971 9972 9973 9974 9975 9976 9977 9978 9979 9981 9982 9983
9991 9989 9988 9986 9984 9983 9981 9980 9979 9977 9976 9974 9973 9971 9970 9969 9969 9968 9968 9966 9965 9964 9963 9962 9961 9960 9959 9958 9958 9957 9956 9955 9954 9954 9953 9953 9953 9953 9952 9952 9952 9952 9952 9952 9952 9952 9953 9953 9953 9953 9954 9954 9955 9956 9956 9956 9956 9957 9957 9958 9958 9959 9959 9960 9961 9962 9963 9963 9964 9964 9965 9966 9966 9967 9968 9969 9970 9971 9972 9973 9974 9975 9976 9978 9979 9980